Regional Weather Roundup
Issued by NWS Huntsville, AL

Home | Current Version | Previous Version | Text Only | Print | Product List | Glossary On
Versions: 1 2 3 4 5 6 7 8 9 10 11 12 13 14 15 16 17 18 19 20 21 22 23 24 25 26 27 28
000
ASUS44 KHUN 031210
RWRHUN

WEATHER ROUNDUP FOR THE TENNESSEE VALLEY
NATIONAL WEATHER SERVICE HUNTSVILLE AL
700 AM CDT TUE AUG 03 2021

ALZ001>004-031300-
NORTHWEST ALABAMA

CITY           SKY/WX    TMP DP  RH WIND       PRES   REMARKS
SHOALS AIRPORT NOT AVBL
$$

ALZ005>007-016-031300-
NORTH CENTRAL ALABAMA

CITY           SKY/WX    TMP DP  RH WIND       PRES   REMARKS
CULLMAN AG STN   N/A     68 N/A N/A CALM        N/A
DECATUR AP     SUNNY     65  62  90 CALM      30.01R
6HR MIN TEMP:  63; 6HR MAX TEMP:  69;

HUNTSVILLE AP  SUNNY     67  63  87 N3        30.00R
6HR MIN TEMP:  65; 6HR MAX TEMP:  70;

HUN NWS/UAH      N/A     68  63  84 NE3         N/A
MERIDIANVILLE  SUNNY     64  63  95 N5        30.02S
VINEMONT AP    CLOUDY    66  65  96 CALM      30.04R FOG
$$

ALZ008>010-031300-
NORTHEAST ALABAMA

CITY           SKY/WX    TMP DP  RH WIND       PRES   REMARKS
ALBERTVILLE      N/A     70  68  94 NE3       30.01S
FORT PAYNE     MOSUNNY   67  65  96 CALM      30.00R FOG
SCOTTSBORO AP  SUNNY     66  66 100 CALM      30.01R
$$

TNZ076-096-097-031300-
SOUTHEASTERN MIDDLE TENNESSEE

CITY           SKY/WX    TMP DP  RH WIND       PRES   REMARKS
FAYETTEVILLE   SUNNY     64  63  94 N6        30.04R
TULLAHOMA      SUNNY     63  61  94 CALM      30.02S
WINCHESTER     SUNNY     63  63 100 CALM      30.02R FOG
$$

...SURROUNDING SITES...

CITY           SKY/WX    TMP DP  RH WIND       PRES   REMARKS
ATLANTA        PTSUNNY   73  68  84 NE9       29.99S
ANNISTON       FOG       72  71  97 CALM      29.98S VSB 1/2
BIRMINGHAM     FOG       70  69  97 CALM      30.00S VSB 1/2
CHATTANOOGA    MOSUNNY   70  63  78 CALM      30.00S
CORINTH        CLEAR     64  63  94 CALM      30.02S
DALTON         PTSUNNY   72  68  88 N3        30.01S FOG
GADSDEN        SUNNY     69  69 100 CALM      29.99R FOG
GOLDEN TRNGL   PTCLDY    68  68 100 NW3       30.00R FOG
HALEYVILLE     FAIR      65  63  93 N3        30.04R
JACKSON TN     CLEAR     63  60  90 NW5       30.05R
MEMPHIS        PTCLDY    70  62  76 NE5       30.03R
NASHVILLE      MOSUNNY   65  59  81 CALM      30.04R
OXFORD MS      MOCLDY    66  64  94 NE5       30.04R
ROME           SUNNY     72  67  84 NE3       29.98R HAZE
SAVANNAH       SUNNY     64  63  94 CALM      30.01S
SELMER         CLEAR     63  61  94 N3        30.02S
TUPELO         NOT AVBL
TUSCALOOSA     SUNNY     70  69  97 CALM      29.98R FOG
$$




USA.gov is the U.S. government's official web portal to all federal, state and local government web resources and services.